When you browse on this site, cookies collect data to enhance your experience and personalize the content and advertising you see.
Visit our Privacy Policy to learn more. By continuing to use the site, you agree to this use of cookies and data.
  • în România
  • Lista ţărilor
  • Pe 7 zile
  • Temperatura apei
  • Meteo pe hartă
  • Widget-uri
  • user-avatar
    Intrare

    Meteo pe oră la Środa Wielkopolska

    Astăzi, 13 Noiembrie, Miercuri

    Timp Temperatura Precipitaţii Vânt Presiune Umiditate
    00:00 +5°C° 0.8 mm 2 m/s 746 mmHg 95%
    01:00 +5°C° 0.8 mm 2 m/s 745 mmHg 96%
    02:00 +6°C° 0.3 mm 2 m/s 745 mmHg 96%
    03:00 +6°C° 0.3 mm 2 m/s 744 mmHg 96%
    04:00 +6°C° 0.3 mm 2 m/s 744 mmHg 97%
    05:00 +6°C° 0.1 mm 2 m/s 744 mmHg 97%
    06:00 +7°C° 0.1 mm 1 m/s 744 mmHg 97%
    07:00 +7°C° 0.1 mm 1 m/s 743 mmHg 97%
    08:00 +8°C° 0.2 mm 1 m/s 743 mmHg 97%
    09:00 +8°C° 0.2 mm 1 m/s 743 mmHg 96%
    10:00 +9°C° 0.2 mm 1 m/s 742 mmHg 95%
    11:00 +9°C° 0.8 mm 1 m/s 742 mmHg 96%
    12:00 +8°C° 0.8 mm 1 m/s 742 mmHg 96%
    13:00 +4°C° 0 mm 3 m/s 743 mmHg 90%
    14:00 +4°C° 0.3 mm 3 m/s 743 mmHg 91%
    15:00 +4°C° 0.3 mm 3 m/s 743 mmHg 92%
    16:00 +5°C° 0.3 mm 2 m/s 743 mmHg 92%
    17:00 +4°C° 0.5 mm 3 m/s 743 mmHg 93%
    18:00 +4°C° 0.5 mm 3 m/s 743 mmHg 93%
    19:00 +4°C° 0.5 mm 4 m/s 743 mmHg 93%
    20:00 +4°C° 1.3 mm 4 m/s 743 mmHg 93%
    21:00 +4°C° 1.3 mm 4 m/s 744 mmHg 93%
    22:00 +2°C° 1.3 mm 5 m/s 744 mmHg 93%
    23:00 +3°C° 0.1 mm 4 m/s 744 mmHg 93%

    Mâine, 14 Noiembrie, Joi

    Timp Temperatura Precipitaţii Vânt Presiune Umiditate
    00:00 +4°C° 0.1 mm 4 m/s 745 mmHg 92%
    01:00 +4°C° 0.1 mm 4 m/s 746 mmHg 91%
    02:00 +4°C° 0 mm 3 m/s 746 mmHg 91%
    03:00 +4°C° 0 mm 3 m/s 746 mmHg 90%
    04:00 +4°C° 0 mm 3 m/s 747 mmHg 89%
    05:00 +4°C° 0 mm 2 m/s 747 mmHg 90%
    06:00 +3°C° 0 mm 2 m/s 748 mmHg 91%
    07:00 +3°C° 0 mm 2 m/s 749 mmHg 92%
    08:00 +4°C° 0 mm 2 m/s 749 mmHg 88%
    09:00 +5°C° 0 mm 2 m/s 750 mmHg 84%
    10:00 +5°C° 0 mm 2 m/s 750 mmHg 80%
    11:00 +6°C° 0 mm 2 m/s 750 mmHg 76%
    12:00 +7°C° 0 mm 2 m/s 751 mmHg 71%
    13:00 +8°C° 0 mm 2 m/s 751 mmHg 66%
    14:00 +7°C° 0 mm 2 m/s 751 mmHg 71%
    15:00 +6°C° 0 mm 2 m/s 751 mmHg 75%
    16:00 +4°C° 0 mm 3 m/s 751 mmHg 80%
    17:00 +4°C° 0 mm 3 m/s 751 mmHg 82%
    18:00 +3°C° 0 mm 4 m/s 751 mmHg 84%
    19:00 +3°C° 0 mm 4 m/s 752 mmHg 87%
    20:00 +2°C° 0 mm 5 m/s 751 mmHg 88%
    21:00 +2°C° 0 mm 5 m/s 751 mmHg 88%
    22:00 +2°C° 0 mm 5 m/s 751 mmHg 89%
    23:00 +2°C° 0 mm 6 m/s 751 mmHg 90%

    Poimâine, 15 Noiembrie, Vineri

    Timp Temperatura Precipitaţii Vânt Presiune Umiditate
    00:00 +3°C° 0 mm 6 m/s 751 mmHg 90%
    01:00 +3°C° 0 mm 6 m/s 751 mmHg 91%
    02:00 +3°C° 0 mm 6 m/s 750 mmHg 92%
    03:00 +3°C° 0 mm 6 m/s 750 mmHg 93%
    04:00 +3°C° 0 mm 6 m/s 749 mmHg 94%
    05:00 +4°C° 0 mm 6 m/s 749 mmHg 95%
    06:00 +5°C° 0 mm 6 m/s 749 mmHg 95%
    07:00 +7°C° 0 mm 6 m/s 749 mmHg 96%
    08:00 +7°C° 0 mm 6 m/s 749 mmHg 92%
    09:00 +8°C° 0 mm 6 m/s 749 mmHg 89%
    10:00 +9°C° 0 mm 6 m/s 749 mmHg 85%
    11:00 +10°C° 0 mm 6 m/s 749 mmHg 80%
    12:00 +11°C° 0 mm 6 m/s 749 mmHg 75%
    13:00 +13°C° 0 mm 6 m/s 748 mmHg 70%
    14:00 +13°C° 0 mm 6 m/s 748 mmHg 74%
    15:00 +11°C° 0 mm 6 m/s 748 mmHg 77%
    16:00 +10°C° 0 mm 6 m/s 748 mmHg 81%
    17:00 +10°C° 0 mm 6 m/s 748 mmHg 82%
    18:00 +10°C° 0 mm 6 m/s 748 mmHg 83%
    19:00 +10°C° 0 mm 6 m/s 748 mmHg 84%
    20:00 +10°C° 0 mm 5 m/s 748 mmHg 84%
    21:00 +10°C° 0 mm 5 m/s 748 mmHg 85%
    22:00 +9°C° 0 mm 5 m/s 748 mmHg 86%
    23:00 +10°C° 0 mm 5 m/s 748 mmHg 84%

    16 Noiembrie, Sâmbătă

    Timp Temperatura Precipitaţii Vânt Presiune Umiditate
    00:00 +10°C° 0 mm 5 m/s 748 mmHg 82%
    01:00 +11°C° 0 mm 4 m/s 748 mmHg 80%
    02:00 +9°C° 0 mm 5 m/s 747 mmHg 79%
    03:00 +9°C° 0 mm 5 m/s 747 mmHg 79%
    04:00 +9°C° 0 mm 5 m/s 746 mmHg 79%
    05:00 +9°C° 0 mm 6 m/s 746 mmHg 77%
    06:00 +10°C° 0 mm 6 m/s 746 mmHg 76%
    07:00 +10°C° 0 mm 6 m/s 746 mmHg 75%
    08:00 +11°C° 0 mm 6 m/s 746 mmHg 73%
    09:00 +13°C° 0 mm 6 m/s 746 mmHg 72%
    10:00 +13°C° 0 mm 5 m/s 746 mmHg 70%
    11:00 +14°C° 0 mm 5 m/s 746 mmHg 69%
    12:00 +14°C° 0 mm 5 m/s 746 mmHg 68%
    13:00 +14°C° 0 mm 5 m/s 746 mmHg 67%
    14:00 +13°C° 0.2 mm 5 m/s 746 mmHg 69%
    15:00 +12°C° 0.2 mm 5 m/s 747 mmHg 72%
    16:00 +9°C° 0.2 mm 5 m/s 747 mmHg 74%
    17:00 +8°C° 0 mm 5 m/s 748 mmHg 75%
    18:00 +7°C° 0 mm 4 m/s 749 mmHg 76%
    19:00 +7°C° 0 mm 4 m/s 750 mmHg 77%
    20:00 +6°C° 0 mm 4 m/s 751 mmHg 78%
    21:00 +7°C° 0 mm 3 m/s 751 mmHg 79%
    22:00 +5°C° 0 mm 3 m/s 752 mmHg 81%
    23:00 +5°C° 0 mm 3 m/s 752 mmHg 82%

    17 Noiembrie, Duminică

    Timp Temperatura Precipitaţii Vânt Presiune Umiditate
    00:00 +5°C° 0 mm 3 m/s 752 mmHg 83%
    01:00 +4°C° 0 mm 3 m/s 753 mmHg 84%
    02:00 +5°C° 0 mm 2 m/s 753 mmHg 84%
    03:00 +5°C° 0 mm 2 m/s 753 mmHg 84%
    04:00 +5°C° 0 mm 1 m/s 753 mmHg 84%
    05:00 +6°C° 0 mm 1 m/s 753 mmHg 82%
    06:00 +6°C° 0 mm 1 m/s 753 mmHg 80%
    07:00 +6°C° 0 mm 1 m/s 753 mmHg 77%
    08:00 +7°C° 0 mm 1 m/s 754 mmHg 76%
    09:00 +7°C° 0 mm 2 m/s 754 mmHg 74%
    10:00 +8°C° 0 mm 3 m/s 754 mmHg 72%
    11:00 +9°C° 0 mm 3 m/s 754 mmHg 72%
    12:00 +10°C° 0 mm 3 m/s 753 mmHg 72%
    13:00 +11°C° 0 mm 3 m/s 753 mmHg 71%
    14:00 +10°C° 0 mm 3 m/s 753 mmHg 76%
    15:00 +8°C° 0 mm 4 m/s 752 mmHg 81%
    16:00 +8°C° 0 mm 4 m/s 752 mmHg 86%
    17:00 +8°C° 0 mm 4 m/s 751 mmHg 87%
    18:00 +8°C° 0 mm 4 m/s 751 mmHg 89%
    19:00 +7°C° 0 mm 4 m/s 751 mmHg 91%
    20:00 +7°C° 0 mm 4 m/s 751 mmHg 91%
    21:00 +7°C° 0 mm 4 m/s 750 mmHg 91%
    22:00 +7°C° 0 mm 4 m/s 750 mmHg 90%
    23:00 +7°C° 0 mm 4 m/s 749 mmHg 91%

    18 Noiembrie, Luni

    Timp Temperatura Precipitaţii Vânt Presiune Umiditate
    00:00 +7°C° 0 mm 5 m/s 749 mmHg 92%
    01:00 +7°C° 0 mm 5 m/s 748 mmHg 92%
    02:00 +7°C° 0 mm 5 m/s 748 mmHg 92%
    03:00 +7°C° 0 mm 5 m/s 747 mmHg 92%
    04:00 +7°C° 0 mm 5 m/s 747 mmHg 93%
    05:00 +7°C° 0 mm 5 m/s 746 mmHg 92%
    06:00 +7°C° 0 mm 5 m/s 746 mmHg 92%
    07:00 +7°C° 0 mm 5 m/s 746 mmHg 91%
    08:00 +7°C° 0 mm 5 m/s 746 mmHg 87%
    09:00 +8°C° 0 mm 5 m/s 746 mmHg 82%
    10:00 +9°C° 0 mm 5 m/s 746 mmHg 78%
    11:00 +10°C° 0 mm 5 m/s 746 mmHg 73%
    12:00 +12°C° 0 mm 5 m/s 745 mmHg 68%
    13:00 +13°C° 0 mm 6 m/s 745 mmHg 63%
    14:00 +13°C° 0 mm 5 m/s 745 mmHg 65%
    15:00 +12°C° 0 mm 5 m/s 745 mmHg 67%
    16:00 +11°C° 0 mm 4 m/s 746 mmHg 69%
    17:00 +10°C° 0 mm 4 m/s 746 mmHg 68%
    18:00 +10°C° 0 mm 4 m/s 746 mmHg 68%
    19:00 +8°C° 0 mm 4 m/s 746 mmHg 67%
    20:00 +8°C° 0 mm 4 m/s 747 mmHg 69%
    21:00 +8°C° 0 mm 4 m/s 747 mmHg 72%
    22:00 +8°C° 0 mm 4 m/s 748 mmHg 74%
    23:00 +9°C° 0 mm 3 m/s 748 mmHg 78%
    Arată mai mult